Lethbridge,

5:52 AM MDT on July 28, 2017 (GMT -0600)
Lethbridge

Weather History for CYQL - September, 2012

Change the Weather History Date:

Saturday, September 8, 2012

  Actual Average Record
Temperature  
Mean Temperature 60 °F -  
Max Temperature 86 °F 70 °F 86 °F (2006)
Min Temperature 35 °F 43 °F 30 °F (2014)
Degree Days  
Heating Degree Days 4    
Growing Degree Days 10 (Base 50)    
Moisture  
Dew Point 33 °F    
Average Humidity 46    
Maximum Humidity 93    
Minimum Humidity 6    
Precipitation  
Precipitation 0.00 in - - ()
Sea Level Pressure  
Sea Level Pressure 30.14 in    
Wind  
Wind Speed 8 mph ()    
Max Wind Speed 17 mph    
Max Gust Speed 22 mph    
Visibility 10.2 miles    
Events      
Averages and records for this station are not official NWS values.
T = Trace of Precipitation, MM = Missing Value Source: Averaged Metar Reports

Daily Weather History Graph

Daily Weather History Graph

Search for Another Location

Airport or City:

Trip Planner

Search our weather history database for the weather conditions in past years. The results will help you decide how hot, cold, wet, or windy it might be!

Date:

Astronomy

Sep. 08, 2012 Rise Set
Actual Time 6:57 AM MDT 7:58 PM MDT
Civil Twilight 6:25 AM MDT 8:30 PM MDT
Nautical Twilight 5:45 AM MDT 9:10 PM MDT
Astronomical Twilight 5:03 AM MDT 9:51 PM MDT
Moon No Moon Rise 3:24 PM MDT (9/8)
Length of Visible Light 14h 05m
Length of Day
13h 00m
Waning Gibbous, 48% of the Moon is Illuminated
Sep 8
Waning Gibbous
Sep 15
New
Sep 22
First Quarter
Sep 29
Full
Oct 8
Last Quarter

Hourly Weather History & Observations

Time (MDT) Temp. Windchill Dew Point Humidity Pressure Visibility Wind Dir Wind Speed Gust Speed Precip Events Conditions
12:00 AM 50 °F - 34 °F 42% 30.27 in 10 mi SW 10.4 mph - -  
12:00 AM 50.0 °F - 33.8 °F 54% 30.27 in 9.0 mi SW 10.4 mph - N/A   Clear
1:00 AM 48.2 °F - 35.6 °F 62% 30.28 in 9.0 mi SSW 5.8 mph - N/A   Clear
2:00 AM 46.4 °F 42.9 °F 37.4 °F 71% 30.28 in 9.0 mi SW 6.9 mph - N/A   Clear
3:00 AM 44.6 °F - 37.4 °F 76% 30.28 in 9.0 mi Calm Calm - N/A   Clear
4:00 AM 41.0 °F 39.0 °F 37.4 °F 87% 30.27 in 9.0 mi WSW 3.5 mph - N/A   Clear
5:00 AM 39.2 °F 34.2 °F 35.6 °F 87% 30.26 in 9.0 mi SSW 6.9 mph - N/A   Clear
6:00 AM 37 °F - 36 °F 93% 30.26 in 10 mi WSW 6.9 mph - -  
6:00 AM 37.4 °F 32.8 °F 35.6 °F 93% 30.25 in 15.0 mi WSW 5.8 mph - N/A   Clear
7:00 AM 39.2 °F 33.6 °F 37.4 °F 93% 30.25 in 30.0 mi WSW 8.1 mph - N/A   Clear
8:00 AM 42.8 °F 40.1 °F 41.0 °F 93% 30.25 in 40.0 mi WSW 4.6 mph - N/A   Clear
9:00 AM 53.6 °F - 41.0 °F 62% 30.23 in 40.0 mi SSW 6.9 mph - N/A   Clear
10:00 AM 60.8 °F - 41.0 °F 48% 30.21 in 40.0 mi SSW 6.9 mph - N/A   Clear
11:00 AM 69.8 °F - 35.6 °F 28% 30.17 in 40.0 mi South 11.5 mph - N/A   Clear
12:00 PM 76 °F - 33 °F 11% 30.14 in 10 mi South 8.1 mph - -  
12:00 PM 75.2 °F - 32.0 °F 21% 30.13 in 40.0 mi South 6.9 mph - N/A   Clear
1:00 PM 80.6 °F - 24.8 °F 13% 30.10 in 40.0 mi SW 9.2 mph 19.6 mph N/A   Clear
2:00 PM 82.4 °F - 26.6 °F 13% 30.07 in 30.0 mi SSW 16.1 mph 21.9 mph N/A   Clear
3:00 PM 84.2 °F - 28.4 °F 13% 30.03 in 30.0 mi SW 11.5 mph 19.6 mph N/A   Clear
4:00 PM 86.0 °F - 30.2 °F 13% 30.00 in 30.0 mi SW 9.2 mph 18.4 mph N/A   Clear
5:00 PM 86.0 °F - 30.2 °F 13% 29.98 in 30.0 mi West 17.3 mph - N/A   Partly Cloudy
6:00 PM 84 °F - 28 °F 6% 29.97 in 10 mi SW 17.3 mph - -  
6:00 PM 84.2 °F - 28.4 °F 13% 29.97 in 30.0 mi SW 17.3 mph - N/A   Partly Cloudy
7:00 PM 78.8 °F - 23.0 °F 13% 29.98 in 30.0 mi SSW 13.8 mph - N/A   Scattered Clouds
8:00 PM 66.2 °F - 26.6 °F 23% 29.98 in 30.0 mi SSW 9.2 mph - N/A   Mostly Cloudy
10:00 PM 51.8 °F - 32.0 °F 47% 29.97 in 15.0 mi WSW 11.5 mph - N/A   Mostly Cloudy
11:00 PM 57.2 °F - 33.8 °F 41% 29.93 in 9.0 mi Variable 4.6 mph - N/A   Clear